Location: Unspecified
(57.6483°N, 3.3184°W)
Time: 09:03:49
(UTC+00:00)

BlueWalker 3 - Pass Details

Date: 01 February 2026
Orbit: 450 x 461 km, 53.2° (Epoch: 11 February)

Event Time Altitude Azimuth Distance (km) Brightness Sun altitude
Rises 17:16:59 0° 248° (WSW) 2,459 8.4 -5.3°
Reaches altitude 10° 17:19:12 10° 241° (WSW) 1,586 6.3 -5.6°
Maximum altitude 17:22:32 38° 172° (S) 703 2.8 -6.0°
Drops below altitude 10° 17:25:52 10° 103° (ESE) 1,585 4.0 -6.4°
Enters shadow 17:26:50 - 98° (E) 1,963 4.4 -6.5°
